Location: Newark
(55.7083°N, 13.1992°E)
Time: 22:55:46
(UTC+00:00)

N. Korean satellite - Pass Details

Date: 01 February 2020
Orbit: 456 x 505 km, 97.2° (Epoch: 19 February)

Event Time Altitude Azimuth Distance (km) Brightness Sun altitude
Rises 16:30:28 0° 188° (S) 2,472 10.6 -7.2°
Reaches altitude 10° 16:32:38 10° 199° (SSW) 1,607 9.8 -7.5°
Maximum altitude 16:35:45 32° 264° (W) 826 8.6 -7.9°
Drops below altitude 10° 16:38:57 10° 329° (NNW) 1,638 9.4 -8.4°
Sets 16:41:11 0° 340° (NNW) 2,529 10.2 -8.7°
